Regional Weather Roundup
Issued by NWS Green Bay, WI

Home | Current Version | Previous Version | Graphics & Text | Print | Product List | Glossary Off
Versions: 1 2 3 4 5 6 7 8 9 10 11 12 13 14 15 16 17 18 19 20 21 22 23 24 25 26 27 28 29 30 31 32 33 34 35 36 37 38 39 40 41 42 43 44 45 46 47 48 49 50

000
ASUS43 KGRB 062200
RWRGRB

NORTH-CENTRAL AND NORTHEAST WISCONSIN REGIONAL WEATHER ROUNDUP
NATIONAL WEATHER SERVICE GREEN BAY WI
500 PM CDT MON JUL 06 2015

WIZ005-009-010>012-018-019-062300-
NORTH CENTRAL WISCONSIN

CITY           SKY/WX    TMP DP  RH WIND       PRES   REMARKS
IRONWOOD       CLOUDY    57  57 100 CALM      29.89R
MANITOWISH WTR NOT AVBL
ARBOR VITAE    NOT AVBL
EAGLE RIVER    NOT AVBL
LAND O LAKES   NOT AVBL
RHINELANDER    LGT RAIN  59  57  93 N9G20     29.86R FOG
PHILLIPS       NOT AVBL
ANTIGO         NOT AVBL
TOMAHAWK       NOT AVBL
MERRILL        NOT AVBL
$$

WIZ013-073-062300-
NORTHEAST WISCONSIN

CITY           SKY/WX    TMP DP  RH WIND       PRES   REMARKS
IRON MOUNTAIN  LGT RAIN  72  70  93 VRB5      29.77F FOG
MARINETTE      CLOUDY    73  66  78 S6        29.76F
$$

WIZ017-030-035>037-045-062300-
CENTRAL WISCONSIN

CITY           SKY/WX    TMP DP  RH WIND       PRES   REMARKS
MEDFORD        NOT AVBL
WAUSAU         CLOUDY    72  68  87 W13       29.78S
MOSINEE        NOT AVBL
MARSHFIELD     LGT RAIN  70  66  87 NW20      29.82R FOG
WISC RAPIDS    LGT RAIN  73  70  90 SW8       29.81S
STEVENS POINT  NOT AVBL
WAUPACA        NOT AVBL
SHAWANO        NOT AVBL
CLINTONVILLE   LGT RAIN  75  70  83 S10       29.76F
$$

WIZ038-039-048-051-062300-
FOX VALLEY

CITY           SKY/WX    TMP DP  RH WIND       PRES   REMARKS
NWS GREEN BAY  CLOUDY    80  70  71 SW13      29.78F
APPLETON       PTSUNNY   79  66  65 S13G21    29.80F
OSHKOSH        CLOUDY    80  70  71 SW12G22   29.79F
FOND DU LAC    CLOUDY    81  71  71 S14G24    29.81F
$$

WIZ022-050-052-062300-
EAST CENTRAL WISCONSIN

CITY           SKY/WX    TMP DP  RH WIND       PRES   REMARKS
STURGEON BAY   CLOUDY    66  63  88 S8        29.82F
MANITOWOC      NOT AVBL
SHEBOYGAN      CLOUDY    77  71  82 S12       29.81F
$$

LMZ563-521-522-541>543-062300-
LAKESHORE

STATION/POSITION TIME  TEMP    WIND        PRES    VSBY  WAVE
                       AIR SEA DIR/SP/G                  HT/PER
                 (UTC) (F)     (DEG/KT/KT) (MB)    (MI)  (FT/S)
SHEBOYGAN LKSHOR 2100   68     200/ 15/ 17 1010.2R
KEWAUNEE LKSHORE 2100   60     180/ 12/ 16 1009.2F
NORTHPORT PIER   2100   68     160/  7/ 12 1008.8F
N MID LAKE BUOY  2050   60 56  220/ 17/ 21 1009.4F         3/ 5
SISTER BAY LKSHO 2114   70     180/ 16/ 20   N/A
STURGEON BAY CG  2100   56     190/  9     1009.7    3/8   2
CHAMBERS ISLAND  2100   72     150/  5/ 10 1008.8
MENOMINEE LKSHOR 2100   72     170/  8/ 11 1009.4F
$$


USA.gov is the U.S. government's official web portal to all federal, state and local government web resources and services.